Location: Blandford
(50.8667°N, 2.1667°W)
Time: 07:08:47
(UTC+00:00)

SPOT 1/Viking Rocket - Pass Details

Date: 09 April 2020
Orbit: 776 x 795 km, 98.5° (Epoch: 02 June)

Event Time Altitude Azimuth Distance (km) Brightness Sun altitude
Exits shadow 21:30:46 41° 177° (S) 1,141 4.0 -21.8°
Maximum altitude 21:32:39 78° 256° (WSW) 819 3.6 -22.0°
Drops below altitude 10° 21:37:55 10° 343° (NNW) 2,378 7.0 -22.6°
Sets 21:40:16 0° 345° (NNW) 3,312 7.9 -22.8°
